Zurück zum Katalog

CZ-3 DEB

LostHEO
NORAD 29445·DEBRIS·🇨🇳 China

Gestartet Apr 8, 1984 von Xichang Satellite Launch Center

Loading…

Nächste Überflüge (nächste 24 Stunden)

TLE

VeraltetSource: Space-Track

Epoche: Jul 20, 2026, 06:34 UTC

1 29445U 84035D   26201.27369565  .00015297  00000-0  23173-1 0  9999
2 29445  29.9473 173.3239 6900585 265.0713  19.7640  2.69699967 40234

Verfolge CZ-3 DEB in Echtzeit mit AllMySat

Download on the App Store